Dewpoint
57 57 58 58 59 59 59 60 60 60 61 62 63 64 64 65 66 67 67 68 68 68 69 69 69 69 69 69 69 70 70 70 70 69 69 70 70 70 69 69 69 70 71 71 72 73 73 74 74 74 74 74 74 74 75 75 75 76 76 76 76 76 76
56 57 57 58 58 59 59 60 60 60 60 61 62 64 64 65 66 66 67 68 68 68 69 69 70 69 69 69 69 70 70 70 70 70 70 70 71 70 70 70 70 70 70 71 72 73 73 73 73 73 74 74 74 74 74 75 75 75 75 76 75 75 75
55 56 57 58 58 59 60 60 60 60 60 60 61 62 63 65 66 66 67 67 68 68 68 69 70 69 70 70 70 70 70 70 70 70 69 69 69 69 70 70 70 69 69 71 72 72 73 73 73 73 73 73 73 74 74 75 75 75 76 76 75 75 75
54 55 56 57 58 59 59 60 60 60 60 60 61 61 63 64 65 66 67 67 67 68 68 68 69 69 69 70 70 70 70 70 70 69 69 69 69 70 70 70 70 70 70 69 71 72 73 73 73 73 74 73 73 74 74 74 75 75 75 75 75 75 75
53 54 55 56 57 58 59 59 60 60 60 60 61 62 62 63 64 65 66 67 67 67 67 68 68 69 70 70 70 70 70 70 70 70 70 70 70 70 70 69 69 69 70 69 71 72 73 73 73 73 73 73 73 74 74 74 74 75 75 75 75 75 75
51 53 54 55 56 57 58 59 59 59 59 59 60 61 62 62 63 64 65 66 66 67 68 68 68 69 69 69 69 70 70 70 70 71 70 70 70 70 70 70 69 69 69 70 71 71 72 73 73 73 73 73 73 73 73 74 74 74 75 75 75 75 74
51 52 53 54 55 56 58 59 59 59 60 60 60 61 62 62 62 63 64 65 66 67 67 67 68 69 69 69 70 70 70 70 70 70 70 70 70 70 70 70 70 70 70 71 70 71 72 72 72 73 73 72 73 73 73 74 74 75 75 75 75 75 75
50 51 53 53 54 55 56 58 59 59 60 60 60 61 61 62 62 63 64 64 65 66 66 67 67 69 69 70 70 69 70 70 70 70 70 70 70 70 69 70 70 70 71 70 71 71 71 72 72 72 72 72 73 73 73 73 74 74 75 75 75 74 74
49 52 52 52 53 54 55 57 59 59 60 60 60 61 61 62 62 62 63 64 65 65 66 66 67 68 69 69 70 70 70 70 70 70 70 69 69 69 69 69 70 71 70 70 70 71 71 71 71 72 73 72 73 73 73 73 73 74 74 74 74 74 74
48 51 53 53 53 53 55 57 59 60 60 60 61 61 62 62 62 63 63 64 64 65 65 66 67 68 69 69 69 69 70 70 70 69 69 69 69 69 69 69 69 71 70 70 70 71 72 72 72 72 72 72 72 73 73 73 73 73 74 74 74 74 74
46 50 52 53 54 54 55 56 59 60 60 61 61 61 62 62 62 63 63 63 64 64 65 66 67 67 68 68 69 69 69 69 69 69 69 69 69 69 69 69 69 70 70 70 70 70 71 72 72 72 72 72 72 72 72 73 73 73 73 74 74 74 74
47 49 52 54 54 54 55 57 59 61 61 61 61 61 62 63 63 63 63 64 64 64 65 65 66 67 67 68 68 69 69 69 69 69 69 69 69 69 69 69 69 69 70 70 70 71 71 71 72 72 72 72 72 72 72 73 73 73 73 73 74 74 74
46 49 51 52 55 55 57 59 59 60 61 60 60 61 61 62 62 63 64 64 64 65 65 66 66 67 67 67 68 68 68 69 69 69 69 69 69 69 69 69 69 69 69 70 70 70 70 70 71 72 72 72 72 72 72 72 73 73 73 73 74 74 74
53 48 50 52 54 56 57 58 60 60 61 60 60 61 61 62 62 63 64 64 64 65 65 65 66 67 67 67 68 68 68 68 69 69 69 69 70 70 69 69 69 69 70 70 70 70 70 70 70 71 72 72 72 73 73 73 73 73 73 73 73 73 73
45 47 49 51 54 56 57 58 60 60 60 61 61 61 61 62 63 64 65 65 65 65 65 66 66 66 67 67 68 68 69 69 69 69 70 70 70 70 70 70 70 70 70 70 70 70 70 71 71 71 71 72 72 72 73 72 72 72 72 73 73 73 73
42 46 48 51 53 55 57 58 60 61 61 62 61 62 61 62 63 63 64 64 65 66 66 67 67 67 67 67 68 68 69 70 70 70 70 70 70 70 70 70 70 70 70 70 70 70 71 71 71 71 71 71 72 72 72 72 72 70 65 67 72 73 73
44 47 48 51 54 55 57 58 60 61 62 62 62 62 62 63 63 63 63 64 65 66 66 66 67 67 67 67 68 69 69 70 70 70 70 70 70 71 71 70 70 70 70 70 70 70 71 71 70 70 71 71 71 72 72 72 71 65 63 63 65 71 73
46 49 50 51 53 55 57 58 60 61 61 61 61 62 62 63 63 63 63 64 65 65 66 67 67 67 68 68 69 69 69 70 70 70 70 70 70 71 71 71 71 71 71 70 70 71 70 70 70 70 70 70 71 71 72 72 67 64 63 63 62 65 72
47 50 51 53 55 56 56 58 59 61 60 61 61 61 62 63 63 63 64 65 65 66 66 67 67 68 69 69 69 70 70 70 70 70 71 71 71 71 71 71 71 71 70 70 70 71 71 71 70 70 70 70 70 70 71 71 66 63 62 62 62 62 66
49 50 51 53 54 55 57 59 60 60 61 61 61 61 62 64 63 64 64 65 66 66 67 68 68 68 69 69 70 70 70 70 70 70 71 71 71 71 71 71 71 70 70 70 71 71 71 70 70 70 71 70 70 70 70 71 66 62 61 61 61 61 63
51 53 53 54 55 56 58 59 60 61 61 61 61 62 63 63 64 65 64 65 66 67 68 68 68 69 69 69 70 70 70 71 71 70 71 71 71 71 71 71 71 71 70 70 70 70 70 70 70 70 71 70 70 70 69 69 64 61 60 60 59 60 62
52 53 53 54 56 57 59 59 60 60 61 63 63 62 62 63 63 64 64 64 65 66 67 68 69 69 69 70 70 70 71 71 71 71 71 71 71 71 71 71 71 71 71 71 70 71 70 71 71 70 70 71 70 70 70 69 62 60 59 59 59 60 66
55 53 55 57 56 58 60 60 60 61 64 62 62 62 62 62 63 63 64 64 65 66 67 68 69 69 70 70 70 71 71 71 71 71 71 71 71 71 71 71 71 71 71 71 71 70 70 70 70 71 70 70 71 70 70 70 65 60 58 58 58 59 68
67 61 59 59 60 60 61 62 63 64 62 62 62 62 63 63 64 64 65 65 65 66 66 67 68 69 70 70 71 71 71 71 71 71 71 71 71 71 71 71 71 71 71 71 70 70 70 70 70 70 70 70 70 70 70 70 67 60 57 57 56 61 69
68 67 64 61 61 61 62 63 63 63 63 62 62 63 64 64 64 64 65 66 65 65 66 68 69 69 70 70 71 71 72 72 72 71 71 71 71 71 71 71 72 72 72 71 71 71 71 71 70 70 70 70 70 67 69 70 67 60 57 56 55 61 69
68 69 69 68 67 67 68 69 67 65 63 62 63 63 64 64 64 66 66 65 65 65 66 68 69 70 70 70 71 72 72 72 72 72 72 72 72 72 72 72 72 72 72 71 71 71 71 71 70 70 70 70 70 70 70 70 70 68 57 56 55 57 69
68 69 69 69 70 71 69 69 69 69 70 71 71 67 64 64 64 67 67 67 66 66 66 68 69 70 71 72 72 72 72 73 72 72 72 72 72 72 72 72 72 72 72 71 71 71 71 71 70 70 70 70 71 70 70 70 70 70 58 55 54 55 60
67 68 68 70 71 70 70 70 71 71 72 73 73 70 67 68 69 70 70 69 70 73 74 75 74 71 70 71 72 72 73 73 73 73 72 73 73 73 72 73 72 72 72 72 72 72 71 71 71 71 71 71 70 70 71 71 67 70 60 56 54 54 55
66 67 67 68 68 69 69 69 69 69 70 71 71 71 71 71 71 71 71 71 72 73 74 75 75 74 71 71 71 72 73 74 73 73 73 73 73 73 73 73 73 73 73 72 72 72 71 72 71 71 71 71 71 70 71 71 70 63 68 57 53 53 53
66 67 67 67 67 68 68 68 68 68 68 69 70 70 71 70 70 71 70 70 71 72 74 74 75 74 73 71 71 71 72 73 73 73 73 73 74 73 73 73 73 73 73 73 72 72 71 71 71 71 70 70 70 70 70 71 71 66 61 63 54 53 53
65 66 66 67 67 68 67 67 67 67 67 67 68 68 69 69 69 70 69 69 71 71 72 73 75 74 71 71 70 71 71 72 73 73 74 74 74 73 73 73 73 73 73 73 72 72 71 72 71 71 71 70 70 70 70 71 71 70 66 60 57 54 53
64 65 66 66 67 67 67 67 67 66 66 67 67 67 68 67 67 67 68 69 71 70 72 73 74 74 74 71 70 70 71 71 72 72 73 73 74 74 74 73 73 72 73 72 72 72 72 71 71 71 71 70 70 70 70 71 71 71 71 65 62 59 54
63 64 65 65 66 67 66 67 66 66 66 66 66 66 67 67 67 68 69 69 68 69 71 73 74 74 74 73 72 70 71 71 71 71 72 73 73 74 74 74 73 73 72 72 72 72 71 71 71 71 70 70 71 71 71 71 72 72 72 71 69 67 65
63 64 65 65 66 66 66 66 66 66 65 65 65 66 66 66 66 66 67 67 68 68 70 73 73 73 73 72 73 71 71 71 73 72 71 72 73 73 73 73 73 73 72 72 72 72 71 71 71 70 70 70 71 71 71 72 72 72 72 70 70 69 68
63 64 64 65 65 67 66 66 66 65 65 65 65 65 65 65 66 66 67 67 67 67 69 71 73 73 72 71 73 72 72 72 73 73 72 68 61 54 51 53 63 73 73 71 73 73 72 72 72 71 71 72 72 72 72 72 71 71 65 71 64 68 67
64 64 65 65 65 65 66 67 66 66 65 65 65 65 65 65 66 66 67 67 67 67 68 70 71 70 71 71 72 73 73 73 73 72 69 65 61 58 56 51 45 47 59 65 58 54 55 64 72 73 74 73 72 66 73 72 72 59 56 55 55 56 58
64 64 64 65 65 66 66 66 67 66 65 65 65 65 65 65 65 65 66 67 67 68 68 68 69 69 70 71 72 73 73 72 70 69 67 65 64 62 61 61 57 45 43 48 49 45 46 53 59 61 65 71 67 53 46 48 46 46 46 46 46 46 47
65 65 65 65 65 65 65 65 65 65 65 64 64 64 64 64 64 65 66 67 68 68 68 68 69 70 70 71 71 72 72 70 69 67 66 65 65 65 65 64 63 60 48 43 45 44 42 41 43 51 58 59 58 56 55 47 43 44 44 44 44 44 44